EW9744 Weather Reports


Display with metric or nautical units.
time (UTC)temp
F
wind
direction
speed
MPH
gust
MPH
rain 1hr
in
rain 24hr
in
rain mn
in
humidity
%
barometer
mb
20260509204611 72 32 4.0 10.0 0.00 0.00 0.00 38 1021.5
20260509204604 71 25 5.0 12.0 0.00 0.00 0.00 39 1021.6
20260509201531 70 27 5.0 10.0 0.00 0.00 0.00 40 1021.8
20260509200031 70 13 4.0 10.0 0.00 0.00 0.00 40 1022.1
20260509193030 68 39 2.0 9.0 0.00 0.00 0.00 47 1022.4
20260509191529 67 48 3.0 9.0 0.00 0.00 0.00 47 1022.4
20260509190030 66 32 3.0 7.0 0.00 0.00 0.00 43 1022.6
20260509184527 65 68 3.0 9.0 0.00 0.00 0.00 48 1022.7
20260509183031 64 45 3.0 8.0 0.00 0.00 0.00 52 1022.8
20260509181531 64 75 3.0 7.0 0.00 0.00 0.00 54 1023.0
20260509180028 63 60 3.0 8.0 0.00 0.00 0.00 59 1022.9
20260509174529 61 76 3.0 7.0 0.00 0.00 0.00 64 1022.9
20260509173106 60 83 4.0 9.0 0.00 0.00 0.00 64 1022.9
20260509171608 60 83 3.0 9.0 0.00 0.00 0.00 65 1023.0
20260509170028 59 23 2.0 5.0 0.00 0.00 0.00 66 1023.2
20260509164532 58 60 2.0 5.0 0.00 0.00 0.00 67 1023.2
20260509163031 57 63 3.0 6.0 0.00 0.00 0.00 67 1023.3
20260509161603 56 52 3.0 6.0 0.00 0.00 0.00 65 1023.3
20260509160029 57 89 3.0 7.0 0.00 0.00 0.00 64 1023.4
20260509154530 57 87 3.0 6.0 0.00 0.00 0.00 63 1023.4
20260509153030 57 113 2.0 5.0 0.00 0.00 0.00 64 1023.4
20260509143029 49 199 1.0 4.0 0.00 0.00 0.00 81 1023.4
20260509141606 51 132 2.0 4.0 0.00 0.00 0.00 77 1023.4
20260509140030 50 292 0.0 3.0 0.00 0.00 0.00 78 1023.3
20260509134532 48 291 2.0 5.0 0.00 0.00 0.00 81 1023.2
20260509133030 46 282 1.0 4.0 0.00 0.00 0.00 84 1023.2
20260509131603 45 278 3.0 5.0 0.00 0.00 0.00 85 1023.1
20260509130030 45 271 5.0 6.0 0.00 0.00 0.00 85 1022.8
20260509124531 45 270 4.0 5.0 0.00 0.00 0.00 84 1022.7
20260509123030 45 275 2.0 5.0 0.00 0.00 0.00 84 1022.7
20260509114606 45 306 4.0 5.0 0.00 0.00 0.00 83 1022.6
20260509113117 0 0 0.0 0.0 0.00 0.00 0.00 100
20260509111645 47 241 2.0 5.0 0.00 0.00 0.00 81 1022.7
20260509104530 48 252 3.0 5.0 0.00 0.00 0.00 80 1022.7
20260509101531 47 274 2.0 5.0 0.00 0.00 0.00 82 1022.8
20260509100031 47 320 2.0 5.0 0.00 0.00 0.00 81 1022.7
20260509093029 48 324 2.0 6.0 0.00 0.00 0.00 77 1023.0
20260509091532 49 8 2.0 5.0 0.00 0.00 0.00 76 1023.1
20260509090030 50 269 2.0 6.0 0.00 0.00 0.00 76 1023.1
20260509084532 50 231 3.0 6.0 0.00 0.00 0.00 76 1023.2
20260509083033 50 247 4.0 8.0 0.00 0.00 0.00 76 1023.5
20260509081532 50 277 4.0 8.0 0.00 0.00 0.00 76 1023.5
20260509080107 49 251 3.0 9.0 0.00 0.00 0.00 78 1023.6
20260509074532 49 246 3.0 6.0 0.00 0.00 0.00 78 1023.7
20260509070032 49 271 6.0 8.0 0.00 0.00 0.00 77 1024.2
20260509064530 50 272 5.0 8.0 0.00 0.00 0.00 75 1024.3
20260509063107 51 261 4.0 6.0 0.00 0.00 0.00 74 1024.4
20260509061534 50 254 4.0 6.0 0.00 0.00 0.00 75 1024.3
20260509054530 49 261 2.0 5.0 0.00 0.00 0.00 76 1024.1
20260509053031 50 261 2.0 7.0 0.00 0.00 0.00 75 1024.0
20260509051529 50 252 1.0 4.0 0.00 0.00 0.00 73 1023.9
20260509050030 51 239 1.0 5.0 0.00 0.00 0.00 71 1023.9
20260509044531 52 201 0.0 2.0 0.00 0.00 0.00 69 1023.8
20260509043146 53 273 1.0 5.0 0.00 0.00 0.00 67 1023.7
20260509040029 53 271 5.0 8.0 0.00 0.00 0.00 65 1023.4
20260509031531 56 262 3.0 6.0 0.00 0.00 0.00 60 1022.9
20260509023032 57 253 4.0 9.0 0.00 0.00 0.00 56 1022.5
20260509021528 59 238 4.0 8.0 0.00 0.00 0.00 54 1022.5
20260509020030 60 238 5.0 12.0 0.00 0.00 0.00 52 1022.5
20260509014530 61 247 4.0 10.0 0.00 0.00 0.00 50 1022.4
20260509013030 61 247 5.0 15.0 0.00 0.00 0.00 49 1022.5
20260509011532 63 221 9.0 15.0 0.00 0.00 0.00 45 1022.4
20260509003107 65 264 7.0 20.0 0.00 0.00 0.00 40 1022.3
20260509000040 67 294 7.0 16.0 0.00 0.00 0.00 38 1022.0
20260508234605 65 306 6.0 17.0 0.00 0.00 0.00 40 1021.9
20260508233030 64 316 7.0 15.0 0.00 0.00 0.00 42 1021.9
20260508231532 64 322 9.0 18.0 0.00 0.00 0.00 43 1021.7
20260508230026 64 328 9.0 17.0 0.00 0.00 0.00 43 1021.6
20260508224531 64 338 10.0 15.0 0.00 0.00 0.00 44 1021.7
20260508223030 63 322 9.0 17.0 0.00 0.00 0.00 46 1021.6
20260508220028 63 336 10.0 18.0 0.00 0.00 0.00 47 1021.5
20260508213034 63 334 8.0 19.0 0.00 0.00 0.00 49 1021.5
20260508211529 61 341 10.0 19.0 0.00 0.00 0.00 52 1021.4
20260508210031 61 339 12.0 23.0 0.00 0.00 0.00 51 1021.3